This is the latest recevied weather packets stored in our database for station/object WA6OOO. If no packets are shown the sender has not sent any weather packets the latest 10 day(s).
| Time | Temp. | Humidity | Pressure | Rain* | Wind** | Luminosity | Snow |
|---|---|---|---|---|---|---|---|
| 1777680455 | 18.89° C | 71% | 1015.3 hPa | 0 mm | - | 317 W/m² | - |
| 1777680152 | 19.44° C | 70% | 1015.5 hPa | 0 mm | - | 331 W/m² | - |
| 1777679847 | 19.44° C | 71% | 1015.6 hPa | 0 mm | - | 346 W/m² | - |
| 1777679543 | 19.44° C | 70% | 1015.5 hPa | 0 mm | - | 361 W/m² | - |
| 1777679239 | 19.44° C | 72% | 1015.6 hPa | 0 mm | - | 374 W/m² | - |
| 1777678937 | 18.89° C | 72% | 1015.6 hPa | 0 mm | - | 387 W/m² | - |
| 1777678635 | 19.44° C | 72% | 1015.6 hPa | 0 mm | - | 403 W/m² | - |
| 1777678332 | 19.44° C | 73% | 1015.6 hPa | 0 mm | - | 419 W/m² | - |
| 1777678027 | 18.89° C | 73% | 1015.7 hPa | 0 mm | - | 434 W/m² | - |
| 1777677725 | 18.89° C | 72% | 1015.6 hPa | 0 mm | - | 451 W/m² | - |
| 1777677422 | 19.44° C | 73% | 1015.7 hPa | 0 mm | - | 465 W/m² | - |
| 1777677120 | 19.44° C | 72% | 1015.8 hPa | 0 mm | - | 479 W/m² | - |
| 1777676819 | 19.44° C | 72% | 1015.7 hPa | 0 mm | - | 495 W/m² | - |
| 1777676517 | 19.44° C | 72% | 1015.8 hPa | 0 mm | - | 505 W/m² | - |
| 1777676214 | 19.44° C | 72% | 1015.9 hPa | 0 mm | - | 524 W/m² | - |
| 1777675910 | 19.44° C | 71% | 1016 hPa | 0 mm | - | 541 W/m² | - |
| 1777675607 | 19.44° C | 71% | 1016 hPa | 0 mm | - | 551 W/m² | - |
| 1777675304 | 20° C | 71% | 1016 hPa | 0 mm | - | 567 W/m² | - |
| 1777675001 | 20° C | 68% | 1016 hPa | 0 mm | - | 582 W/m² | - |
| 1777674698 | 20° C | 69% | 1016.2 hPa | 0 mm | - | 595 W/m² | - |
| 1777674394 | 20° C | 68% | 1016.3 hPa | 0 mm | - | 609 W/m² | - |
| 1777674091 | 20° C | 68% | 1016.2 hPa | 0 mm | - | 623 W/m² | - |
| 1777673787 | 20° C | 69% | 1016.4 hPa | 0 mm | - | 636 W/m² | - |
| 1777673485 | 20° C | 69% | 1016.2 hPa | 0 mm | - | 648 W/m² | - |
| 1777673183 | 20° C | 68% | 1016.6 hPa | 0 mm | - | 654 W/m² | - |
* Rain latest hour (hover to see other rain measurements)
** Current wind speed in m/s (hover to see current wind gust speed)